Regional Weather Roundup
Issued by NWS

Home | Current Version | Previous Version | Text Only | Print | Product List | Glossary Off
Versions: 1 2 3 4 5 6 7 8 9 10 11 12 13 14 15 16 17 18 19 20 21 22 23 24 25 26 27 28 29 30 31 32 33 34 35 36 37 38 39 40 41 42 43 44 45 46 47 48 49 50

000
ASUS43 KLMK 161210
RWRKY
KENTUCKY REGIONAL WEATHER ROUNDUP
NATIONAL WEATHER SERVICE LOUISVILLE KY
800 AM EDT MON OCT 16 2017

NOTE "FAIR" INDICATES FEW OR NO CLOUDS BELOW 12,000 FEET
WITH NO SIGNIFICANT WEATHER AND/OR OBSTRUCTIONS TO VISIBILITY.

KYZ001>023-026-027-061>063-070>075-161300-
WESTERN AND SOUTH CENTRAL KENTUCKY

CITY           SKY/WX    TMP DP  RH WIND       PRES   REMARKS
PADUCAH        CLEAR     45  40  82 NW3       30.34R
HENDERSON      CLEAR     47  41  80 N6        30.35R
OWENSBORO      CLEAR     47  42  83 N5        30.34R
HOPKINSVILLE   CLEAR     46  42  86 N6        30.32R
BOWLING GREEN  CLEAR     49  44  83 N5        30.30R
GLASGOW        CLOUDY    48  44  84 N5        30.29R
$$

KYZ024-025-028>034-038-045-046-053-161300-
NORTH CENTRAL KENTUCKY

CITY           SKY/WX    TMP DP  RH WIND       PRES   REMARKS
LOUISVILLE/SDF PTCLDY    50  43  77 N8        30.30R
LOUISVILLE/LOU PTCLDY    48  45  89 N3        30.31R
FORT KNOX      PTCLDY    46  43  87 NW6       30.28R
$$

KYZ035>037-039>044-047>052-055>060-089>105-161300-
NORTHEAST KENTUCKY

CITY           SKY/WX    TMP DP  RH WIND       PRES   REMARKS
LEXINGTON      CLEAR     45  41  86 NW5       30.28R
COVINGTON      PTCLDY    46  46 100 NW7       30.28R
FRANKFORT      PTCLDY    46  42  86 NW5       30.28R
$$

KYZ054-064>069-076>088-106>120-161300-
SOUTHEAST KENTUCKY

CITY           SKY/WX    TMP DP  RH WIND       PRES   REMARKS
JACKSON        CLOUDY    49  44  83 VRB3      30.23R
LONDON         CLOUDY    50  44  80 N6        30.24R
SOMERSET       CLOUDY    50  43  76 N6        30.28R
MIDDLESBORO    CLOUDY    50  44  78 N5        30.23S
MONTICELLO     CLOUDY    51  44  77 N15       30.28R
$$





USA.gov is the U.S. government's official web portal to all federal, state and local government web resources and services.